Weather History for DeKalb, IL

Change the Weather History Date:

Sunday, March 10, 2013

  Actual Average (KARR) Record (KARR)
Temperature  
Mean Temperature 39 °F 35 °F  
Max Temperature 42 °F 44 °F 62 °F (2010)
Min Temperature 36 °F 25 °F 0 °F (2003)
Degree Days  
Heating Degree Days 26 31  
Month to date heating degree days 326  
Since 1 July heating degree days 5464  
Cooling Degree Days 0 0  
Month to date cooling degree days 0  
Year to date cooling degree days 0  
Moisture  
Dew Point 36 °F    
Average Humidity 91    
Maximum Humidity 93    
Minimum Humidity 78    
Precipitation  
Precipitation 0.76 in 0.08 in 1.06 in (2013)
Month to date precipitation 0.68  
Year to date precipitation 3.77  
Sea Level Pressure  
Sea Level Pressure 29.71 in    
Wind  
Wind Speed 13 mph (SE)    
Max Wind Speed 17 mph    
Max Gust Speed -    
Visibility 2 miles    
Events Fog , Rain , Snow    
T = Trace of Precipitation, MM = Missing Value Source: NWS Daily Summary

Daily Weather History Graph

Daily Weather History Graph

Search for Another Location

Airport:

Trip Planner

Search our weather history database for the weather conditions in past years. The results will help you decide how hot, cold, wet, or windy it might be!

Date:

Astronomy

Mar. 10, 2013 Rise Set
Actual Time 7:14 AM CDT 6:55 PM CDT
Civil Twilight 6:46 AM CDT 7:23 PM CDT
Nautical Twilight 6:14 AM CDT 7:56 PM CDT
Astronomical Twilight 5:42 AM CDT 8:28 PM CDT
Moon 6:15 AM CDT (3/10) 6:03 PM CDT (3/10)
Length of Visible Light 12h 36m
Length of Day
11h 41m
Waning Crescent, 2% of the Moon is Illuminated
Mar 10
Waning Crescent
Mar 11
New
Mar 19
First Quarter
Mar 27
Full
Apr 2
Last Quarter

Hourly Weather History & Observations

Time (CDT) Temp. Windchill Dew Point Humidity Pressure Visibility Wind Dir Wind Speed Gust Speed Precip Events Conditions
12:15 AM 38.3 °F 29.0 °F 32.0 °F 78% 29.82 in 10.0 mi SSE 17.3 mph - N/A   Overcast
12:35 AM 38.5 °F 29.6 °F 32.4 °F 79% 29.83 in 10.0 mi SSE 16.1 mph - N/A Rain Light Rain
12:55 AM 37.0 °F 27.4 °F 32.9 °F 85% 29.83 in 2.5 mi SSE 17.3 mph - 0.06 in Rain Light Rain
1:15 AM 36.5 °F 27.0 °F 32.9 °F 87% 29.84 in 7.0 mi SSE 16.1 mph - 0.01 in Rain Light Rain
1:35 AM 36.5 °F 27.4 °F 33.3 °F 88% 29.82 in 7.0 mi SSE 15.0 mph - 0.02 in Rain Light Rain
1:55 AM 36.5 °F 27.8 °F 33.8 °F 90% 29.81 in 2.5 mi SSE 13.8 mph - 0.06 in Rain Heavy Rain
3:15 AM 37.2 °F 28.7 °F 34.7 °F 91% 29.79 in 2.0 mi SSE 13.8 mph - 0.05 in Rain Rain
3:35 AM 37.6 °F 29.1 °F 35.2 °F 91% 29.78 in 1.8 mi South 13.8 mph - 0.10 in Rain Light Rain
3:55 AM 36.7 °F 27.6 °F 34.5 °F 92% 29.77 in 0.8 mi SSE 15.0 mph - 0.11 in Rain Light Rain
4:15 AM 37.6 °F 28.8 °F 35.2 °F 91% 29.76 in 0.8 mi SSE 15.0 mph - N/A Rain Light Rain
4:35 AM 37.6 °F 28.8 °F 35.2 °F 91% 29.76 in 1.8 mi SSE 15.0 mph - N/A Rain Light Rain
4:55 AM 37.6 °F 28.1 °F 35.2 °F 91% 29.77 in 1.8 mi SSE 17.3 mph - 0.02 in Rain Rain
5:15 AM 37.0 °F 27.4 °F 34.7 °F 91% 29.78 in 0.8 mi SSE 17.3 mph - 0.04 in Rain Rain
5:35 AM 36.9 °F 27.8 °F 34.7 °F 92% 29.78 in 1.0 mi SSE 15.0 mph - 0.11 in Rain Rain
5:55 AM 37.2 °F 28.3 °F 34.9 °F 91% 29.78 in 0.8 mi SSE 15.0 mph - 0.13 in Rain Light Rain
6:15 AM 37.6 °F 28.4 °F 35.2 °F 91% 29.77 in 0.5 mi SE 16.1 mph - N/A Rain Light Rain
6:35 AM 37.4 °F 28.9 °F 35.6 °F 93% 29.76 in 0.5 mi SE 13.8 mph - N/A Rain Light Rain
6:55 AM 39.2 °F 30.5 °F 35.6 °F 87% 29.74 in 1.0 mi SE 16.1 mph - N/A Rain Rain
7:15 AM 37.4 °F 27.8 °F 35.6 °F 93% 29.76 in 0.8 mi SE 17.3 mph - N/A Rain Light Rain
7:35 AM 37.6 °F 28.8 °F 35.2 °F 91% 29.75 in 0.8 mi SE 15.0 mph - 0.01 in   Overcast
7:55 AM 37.8 °F 28.3 °F 35.4 °F 91% 29.75 in 1.2 mi SE 17.3 mph - 0.01 in   Overcast
8:15 AM 37.8 °F 30.7 °F 35.6 °F 92% 29.76 in 1.8 mi SE 10.4 mph - N/A   Overcast
8:35 AM 37.8 °F 30.2 °F 35.4 °F 91% 29.77 in 2.0 mi SSE 11.5 mph - N/A   Overcast
8:55 AM 37.4 °F 30.8 °F 35.1 °F 91% 29.78 in 1.2 mi SSE 9.2 mph - N/A   Overcast
9:15 AM 37.6 °F 33.1 °F 35.2 °F 91% 29.78 in 1.5 mi SSE 5.8 mph - N/A   Overcast
9:35 AM 37.6 °F 33.1 °F 35.1 °F 91% 29.78 in 1.5 mi SE 5.8 mph - N/A   Overcast
9:55 AM 38.3 °F 31.4 °F 35.8 °F 91% 29.77 in 1.8 mi SE 10.4 mph - N/A   Overcast
10:15 AM 38.7 °F 33.6 °F 36.3 °F 91% 29.77 in 2.5 mi SE 6.9 mph - N/A   Overcast
10:35 AM 38.3 °F 33.2 °F 36.0 °F 91% 29.78 in 2.0 mi SE 6.9 mph - N/A   Overcast
10:55 AM 38.3 °F 33.9 °F 36.0 °F 91% 29.78 in 2.0 mi ESE 5.8 mph - N/A   Light Drizzle
11:15 AM 37.9 °F 33.5 °F 35.8 °F 92% 29.78 in 1.2 mi ESE 5.8 mph - N/A Rain Rain
11:35 AM 39.2 °F 35.0 °F 36.7 °F 91% 29.76 in 1.2 mi ESE 5.8 mph - N/A Rain Light Rain
11:55 AM 40.3 °F 34.9 °F 37.9 °F 91% 29.73 in 1.2 mi ESE 8.1 mph - N/A   Light Drizzle
12:15 PM 40.1 °F 33.6 °F 37.8 °F 91% 29.76 in 4.0 mi SE 10.4 mph - N/A   Mostly Cloudy
12:35 PM 40.1 °F 34.1 °F 37.8 °F 91% 29.76 in 4.0 mi SE 9.2 mph - N/A   Overcast
12:55 PM 39.9 °F 33.9 °F 37.6 °F 91% 29.76 in 3.0 mi ESE 9.2 mph - 0.02 in Rain Light Rain
1:15 PM 39.4 °F 35.2 °F 37.0 °F 91% 29.74 in 2.5 mi East 5.8 mph - 0.02 in Rain Rain
1:35 PM 39.2 °F 33.6 °F 36.9 °F 91% 29.75 in 1.8 mi SE 8.1 mph - 0.06 in Rain Rain
1:55 PM 39.4 °F 33.8 °F 37.4 °F 93% 29.74 in 1.8 mi ESE 8.1 mph - 0.12 in Rain Rain
2:15 PM 39.2 °F 34.2 °F 37.0 °F 92% 29.72 in 1.2 mi ESE 6.9 mph - 0.01 in Rain Rain
2:35 PM 38.8 °F 33.8 °F 36.5 °F 91% 29.70 in 0.2 mi ESE 6.9 mph - 0.01 in   Drizzle
2:55 PM 38.8 °F 33.8 °F 36.7 °F 92% 29.67 in 0.2 mi East 6.9 mph - 0.03 in Rain Rain
3:15 PM 39.2 °F 33.6 °F 36.7 °F 91% 29.66 in 0.2 mi East 8.1 mph - 0.01 in Rain Rain
3:35 PM 39.2 °F 34.2 °F 36.7 °F 91% 29.67 in 0.2 mi ESE 6.9 mph - 0.02 in Rain Light Rain
3:55 PM 40.6 °F 33.8 °F 38.3 °F 91% 29.69 in 0.2 mi SE 11.5 mph - 0.03 in Rain Rain
4:15 PM 42.1 °F 35.7 °F 39.7 °F 91% 29.69 in 0.5 mi SE 11.5 mph - 0.05 in Rain Rain
4:35 PM 41.4 °F 36.8 °F 39.2 °F 92% 29.67 in 0.2 mi ESE 6.9 mph - 0.09 in Rain Rain
4:55 PM 41.0 °F 34.3 °F 38.5 °F 91% 29.67 in 0.2 mi ESE 11.5 mph - 0.14 in Rain Rain
5:15 PM 40.6 °F 35.4 °F 38.3 °F 91% 29.65 in 0.2 mi East 8.1 mph - N/A Rain Rain
5:35 PM 39.7 °F 34.3 °F 37.4 °F 91% 29.64 in 0.2 mi East 8.1 mph - N/A   Light Drizzle
5:55 PM 40.1 °F 32.7 °F 37.8 °F 91% 29.60 in 0.2 mi East 12.7 mph - N/A Rain Light Rain
6:15 PM 41.4 °F 35.2 °F 39.2 °F 92% 29.61 in 0.2 mi East 10.4 mph - N/A Fog Fog
6:35 PM 39.9 °F 34.5 °F 37.6 °F 91% 29.61 in 0.2 mi East 8.1 mph - N/A Fog Fog
6:55 PM 40.3 °F 34.4 °F 37.9 °F 91% 29.59 in 0.2 mi East 9.2 mph - N/A Fog Fog
7:15 PM 40.3 °F 34.9 °F 38.1 °F 92% 29.60 in 0.2 mi East 8.1 mph - N/A Fog Fog
7:35 PM 41.2 °F 34.5 °F 38.7 °F 91% 29.59 in 0.2 mi ESE 11.5 mph - N/A Rain Light Rain
7:55 PM 42.8 °F 35.4 °F 40.5 °F 91% 29.60 in 7.0 mi SE 15.0 mph - 0.01 in   Overcast
8:15 PM 41.0 °F 33.5 °F 38.5 °F 91% 29.61 in 7.0 mi SSE 13.8 mph - N/A   Overcast
8:35 PM 39.9 °F 32.1 °F 37.6 °F 91% 29.62 in 5.0 mi South 13.8 mph - N/A   Overcast
8:55 PM 39.2 °F 32.0 °F 37.4 °F 93% 29.62 in 0.5 mi South 11.5 mph - N/A Fog Fog
9:15 PM 38.3 °F 30.9 °F 36.0 °F 91% 29.63 in 0.2 mi South 11.5 mph - N/A Fog Fog
9:35 PM 38.3 °F 31.4 °F 36.1 °F 92% 29.63 in 0.2 mi South 10.4 mph - N/A Rain Light Rain
9:55 PM 37.0 °F 30.4 °F 34.9 °F 92% 29.63 in 0.2 mi South 9.2 mph - N/A Snow Light Snow
10:15 PM 36.9 °F 29.6 °F 34.7 °F 92% 29.64 in 0.2 mi SSE 10.4 mph - N/A Snow Light Snow
10:35 PM 36.5 °F 30.3 °F 34.2 °F 91% 29.63 in 0.5 mi South 8.1 mph - 0.01 in Rain Rain
10:55 PM 37.6 °F 31.0 °F 35.4 °F 92% 29.63 in 0.5 mi South 9.2 mph - 0.02 in Rain Rain
11:15 PM 37.6 °F 30.5 °F 35.6 °F 93% 29.63 in 0.5 mi South 10.4 mph - N/A   Drizzle
11:35 PM 37.8 °F 31.3 °F 35.6 °F 92% 29.63 in 0.2 mi South 9.2 mph - N/A Rain Light Rain
11:55 PM 37.8 °F 31.3 °F 35.6 °F 92% 29.63 in 0.2 mi South 9.2 mph - N/A Fog Fog
12:15 AM 37.8 °F 30.7 °F 35.6 °F 92% 29.63 in 0.2 mi South 10.4 mph - N/A Fog Fog
12:35 AM 37.6 °F 30.5 °F 35.6 °F 93% 29.62 in 0.2 mi SSW 10.4 mph - N/A Fog Fog
12:55 AM 37.8 °F 31.8 °F 35.8 °F 93% 29.62 in 0.2 mi SW 8.1 mph - N/A Snow Light Snow